VK4CWL-13 Weather Reports


Display with metric or nautical units.
time (UTC)temp
F
wind
direction
speed
MPH
gust
MPH
rain 1hr
in
rain 24hr
in
rain mn
in
humidity
%
barometer
mb
20260510111317 64 135 4.0 6.0 0.00 0.00 0.00 72 1025.0
20260510110815 64 135 4.0 5.0 0.00 0.00 0.00 71 1024.9
20260510110312 63 135 5.0 6.0 0.00 0.00 0.00 71 1025.0
20260510105809 63 135 5.0 6.0 0.00 0.00 0.00 71 1024.9
20260510105309 63 135 5.0 6.0 0.00 0.00 0.00 71 1024.9
20260510104805 63 135 5.0 5.0 0.00 0.00 0.00 70 1024.9
20260510104303 63 135 6.0 6.0 0.00 0.00 0.00 70 1024.8
20260510103800 63 135 5.0 5.0 0.00 0.00 0.00 70 1025.1
20260510103258 63 157 5.0 6.0 0.00 0.00 0.00 70 1025.0
20260510102756 63 135 5.0 7.0 0.00 0.00 0.00 69 1025.1
20260510102254 63 135 5.0 5.0 0.00 0.00 0.00 69 1024.9
20260510101752 63 157 4.0 5.0 0.00 0.00 0.00 69 1024.9
20260510101249 63 180 3.0 4.0 0.00 0.00 0.00 69 1024.9
20260510100746 63 180 3.0 4.0 0.00 0.00 0.00 69 1025.0
20260510100244 63 180 3.0 3.0 0.00 0.00 0.00 68 1024.9
20260510095742 64 168 3.0 4.0 0.00 0.00 0.00 68 1024.7
20260510095240 64 180 3.0 4.0 0.00 0.00 0.00 67 1024.6
20260510094235 64 157 3.0 5.0 0.00 0.00 0.00 67 1024.3
20260510093733 64 135 4.0 5.0 0.00 0.00 0.00 66 1024.3
20260510093232 65 157 4.0 5.0 0.00 0.00 0.00 66 1024.2
20260510092729 65 135 4.0 5.0 0.00 0.00 0.00 65 1024.0
20260510092226 65 157 4.0 6.0 0.00 0.00 0.00 65 1024.1
20260510091723 65 180 5.0 5.0 0.00 0.00 0.00 65 1024.0
20260510091221 66 180 3.0 5.0 0.00 0.00 0.00 64 1023.9
20260510090719 66 157 4.0 5.0 0.00 0.00 0.00 64 1023.8
20260510090217 66 146 5.0 5.0 0.00 0.00 0.00 64 1023.6
20260510085715 66 180 4.0 5.0 0.00 0.00 0.00 64 1023.6
20260510085212 67 135 4.0 5.0 0.00 0.00 0.00 63 1023.5
20260510084710 67 135 4.0 4.0 0.00 0.00 0.00 63 1023.5
20260510084210 67 135 3.0 5.0 0.00 0.00 0.00 62 1023.6
20260510083706 67 135 5.0 5.0 0.00 0.00 0.00 62 1023.3
20260510083203 68 135 4.0 5.0 0.00 0.00 0.00 62 1023.4
20260510082700 68 135 4.0 5.0 0.00 0.00 0.00 62 1023.3
20260510082158 68 135 3.0 4.0 0.00 0.00 0.00 61 1023.3
20260510081656 68 180 3.0 5.0 0.00 0.00 0.00 61 1023.0
20260510081154 69 135 5.0 5.0 0.00 0.00 0.00 61 1023.0
20260510080652 69 135 4.0 6.0 0.00 0.00 0.00 60 1023.1
20260510075647 70 135 3.0 4.0 0.00 0.00 0.00 60 1022.9
20260510075145 70 112 3.0 4.0 0.00 0.00 0.00 60 1023.0
20260510074643 70 90 4.0 4.0 0.00 0.00 0.00 60 1023.0
20260510074140 70 90 3.0 4.0 0.00 0.00 0.00 59 1023.0
20260510073638 70 135 4.0 5.0 0.00 0.00 0.00 59 1023.0
20260510073135 71 112 4.0 5.0 0.00 0.00 0.00 59 1022.9
20260510072633 71 112 6.0 6.0 0.00 0.00 0.00 58 1022.9
20260510072131 71 90 3.0 4.0 0.00 0.00 0.00 58 1022.8
20260510071629 71 90 4.0 4.0 0.00 0.00 0.00 58 1022.9
20260510071127 72 112 3.0 4.0 0.00 0.00 0.00 58 1023.0
20260510070627 72 101 4.0 6.0 0.00 0.00 0.00 57 1022.9
20260510070122 72 135 3.0 6.0 0.00 0.00 0.00 57 1022.9
20260510065620 72 90 3.0 6.0 0.00 0.00 0.00 57 1023.0
20260510065117 72 112 5.0 8.0 0.00 0.00 0.00 57 1022.8
20260510064616 72 90 6.0 8.0 0.00 0.00 0.00 56 1022.7
20260510064113 72 90 6.0 8.0 0.00 0.00 0.00 56 1022.8
20260510063610 72 90 5.0 9.0 0.00 0.00 0.00 56 1022.7
20260510063108 72 90 6.0 9.0 0.00 0.00 0.00 56 1022.6
20260510062607 73 90 6.0 7.0 0.00 0.00 0.00 56 1022.6
20260510062104 73 135 4.0 7.0 0.00 0.00 0.00 56 1022.6
20260510061602 73 135 8.0 10.0 0.00 0.00 0.00 56 1022.6
20260510061059 73 135 4.0 9.0 0.00 0.00 0.00 56 1022.6
20260510060557 73 112 6.0 10.0 0.00 0.00 0.00 56 1022.6
20260510060054 73 247 4.0 5.0 0.00 0.00 0.00 56 1022.7
20260510055552 73 90 8.0 8.0 0.00 0.00 0.00 56 1022.6
20260510055050 73 90 7.0 7.0 0.00 0.00 0.00 56 1022.7
20260510054547 73 45 4.0 5.0 0.00 0.00 0.00 56 1022.7
20260510054045 73 45 5.0 7.0 0.00 0.00 0.00 56 1022.7
20260510053543 73 112 9.0 9.0 0.00 0.00 0.00 56 1022.7
20260510053041 73 90 9.0 13.0 0.00 0.00 0.00 56 1022.5
20260510052539 73 135 9.0 10.0 0.00 0.00 0.00 56 1022.5
20260510052036 73 90 7.0 9.0 0.00 0.00 0.00 57 1022.4
20260510051032 73 90 7.0 10.0 0.00 0.00 0.00 58 1022.4
20260510050530 73 56 6.0 10.0 0.00 0.00 0.00 58 1022.2
20260510050027 73 90 10.0 11.0 0.00 0.00 0.00 58 1022.1
20260510045526 73 90 9.0 9.0 0.00 0.00 0.00 58 1022.1
20260510045022 73 90 8.0 13.0 0.00 0.00 0.00 59 1022.1
20260510044520 73 90 6.0 8.0 0.00 0.00 0.00 58 1022.1
20260510044018 73 135 7.0 10.0 0.00 0.00 0.00 58 1022.3
20260510043516 73 90 6.0 9.0 0.00 0.00 0.00 58 1022.2
20260510043014 73 90 7.0 8.0 0.00 0.00 0.00 58 1022.2
20260510042511 72 90 5.0 7.0 0.00 0.00 0.00 58 1022.2
20260510042009 72 135 5.0 6.0 0.00 0.00 0.00 57 1022.4
20260510041506 72 90 2.0 7.0 0.00 0.00 0.00 57 1022.3
20260510041004 73 90 6.0 7.0 0.00 0.00 0.00 57 1022.4
20260510040502 73 168 4.0 6.0 0.00 0.00 0.00 56 1022.4
20260510035959 73 135 6.0 9.0 0.00 0.00 0.00 56 1022.5
20260510035457 73 112 5.0 7.0 0.00 0.00 0.00 56 1022.6
20260510034955 73 135 6.0 9.0 0.00 0.00 0.00 56 1022.9
20260510034453 73 180 5.0 10.0 0.00 0.00 0.00 57 1022.8
20260510033951 72 146 6.0 8.0 0.00 0.00 0.00 57 1022.8
20260510033449 72 135 7.0 8.0 0.00 0.00 0.00 57 1022.9
20260510032946 72 135 5.0 7.0 0.00 0.00 0.00 58 1023.0
20260510032443 72 157 10.0 10.0 0.00 0.00 0.00 58 1023.0
20260510031941 72 135 3.0 7.0 0.00 0.00 0.00 58 1023.0
20260510031439 72 135 9.0 9.0 0.00 0.00 0.00 58 1023.1
20260510030937 71 180 5.0 9.0 0.00 0.00 0.00 58 1023.0
20260510030434 71 146 5.0 9.0 0.00 0.00 0.00 59 1023.1
20260510025932 71 135 8.0 8.0 0.00 0.00 0.00 58 1023.1
20260510025445 71 135 6.0 10.0 0.00 0.00 0.00 59 1023.3
20260510024928 71 135 6.0 7.0 0.00 0.00 0.00 59 1023.3
20260510024426 70 180 8.0 8.0 0.00 0.00 0.00 59 1023.4
20260510024123 70 168 0.0 7.0 0.00 0.00 0.00 59 1023.3
20260510023620 70 135 6.0 8.0 0.00 0.00 0.00 59 1023.2
20260510023118 70 135 6.0 9.0 0.00 0.00 0.00 59 1023.2
20260510022616 70 112 7.0 10.0 0.00 0.00 0.00 60 1023.2
20260510022114 70 135 8.0 8.0 0.00 0.00 0.00 60 1023.2
20260510021612 70 146 7.0 9.0 0.00 0.00 0.00 60 1023.3
20260510021109 70 101 6.0 9.0 0.00 0.00 0.00 60 1023.3
20260510020607 69 135 5.0 10.0 0.00 0.00 0.00 60 1023.4
20260510020105 69 135 10.0 10.0 0.00 0.00 0.00 60 1023.6
20260510015603 69 135 7.0 9.0 0.00 0.00 0.00 60 1023.6
20260510015100 69 135 6.0 10.0 0.00 0.00 0.00 60 1023.8
20260510014559 69 135 10.0 10.0 0.00 0.00 0.00 60 1023.9
20260510014055 69 135 8.0 8.0 0.00 0.00 0.00 61 1023.8
20260510013553 69 112 9.0 10.0 0.00 0.00 0.00 60 1023.9
20260510013051 68 135 7.0 11.0 0.00 0.00 0.00 60 1024.0
20260510012550 68 135 12.0 12.0 0.00 0.00 0.00 60 1024.0
20260510012437 68 146 1.0 12.0 0.00 0.00 0.00 60 1024.0
20260510012024 68 157 10.0 11.0 0.00 0.00 0.00 60 1024.0
20260510011522 68 135 10.0 11.0 0.00 0.00 0.00 60 1024.3
20260510011020 68 90 10.0 10.0 0.00 0.00 0.00 60 1024.5
20260510010517 68 135 9.0 9.0 0.00 0.00 0.00 61 1024.6
20260510005512 67 135 7.0 11.0 0.00 0.00 0.00 62 1024.8
20260510005012 67 135 7.0 10.0 0.00 0.00 0.00 62 1025.0
20260510004508 67 135 7.0 10.0 0.00 0.00 0.00 62 1025.1
20260510004006 67 135 5.0 10.0 0.00 0.00 0.00 63 1025.2
20260510003504 67 135 7.0 12.0 0.00 0.00 0.00 63 1025.1
20260510003003 66 157 10.0 11.0 0.00 0.00 0.00 63 1025.1
20260510002501 66 157 6.0 10.0 0.00 0.00 0.00 63 1025.0
20260510001957 66 135 10.0 10.0 0.00 0.00 0.00 63 1025.0
20260510001454 66 157 10.0 11.0 0.00 0.00 0.00 63 1025.1
20260510000952 66 135 8.0 9.0 0.00 0.00 0.00 64 1025.4
20260510000450 65 135 10.0 10.0 0.00 0.00 0.00 64 1025.3
20260509235947 65 135 6.0 10.0 0.00 0.00 0.00 64 1025.4
20260509234944 65 157 9.0 10.0 0.00 0.00 0.00 64 1025.2
20260509233938 65 135 11.0 12.0 0.00 0.00 0.00 64 1025.1
20260509233433 65 135 8.0 11.0 0.00 0.00 0.00 64 1025.2
20260509232931 64 135 10.0 12.0 0.00 0.00 0.00 64 1025.0
20260509232429 64 135 10.0 11.0 0.00 0.00 0.00 64 1024.9
20260509231926 64 135 10.0 11.0 0.00 0.00 0.00 64 1024.9
20260509231424 64 135 8.0 11.0 0.00 0.00 0.00 64 1024.9
20260509230921 64 135 8.0 12.0 0.00 0.00 0.00 64 1024.9
20260509230419 63 135 10.0 10.0 0.00 0.00 0.00 65 1024.9
20260509225917 63 135 11.0 11.0 0.00 0.00 0.00 64 1024.8
20260509225415 63 135 11.0 11.0 0.00 0.00 0.00 64 1024.7
20260509224913 63 135 9.0 12.0 0.00 0.00 0.00 64 1024.6
20260509224411 62 135 8.0 13.0 0.00 0.00 0.00 64 1024.5
20260509223908 62 135 8.0 10.0 0.00 0.00 0.00 64 1024.3
20260509223406 62 168 8.0 11.0 0.00 0.00 0.00 64 1024.5
20260509222903 61 135 8.0 11.0 0.00 0.00 0.00 64 1024.3
20260509222401 61 146 10.0 12.0 0.00 0.00 0.00 65 1024.3
20260509221859 60 135 6.0 11.0 0.00 0.00 0.00 64 1024.1
20260509220851 60 135 10.0 12.0 0.00 0.00 0.00 65 1023.9
20260509220349 60 135 7.0 11.0 0.00 0.00 0.00 65 1024.0
20260509215847 60 157 7.0 11.0 0.00 0.00 0.00 65 1024.1
20260509215345 59 135 9.0 12.0 0.00 0.00 0.00 65 1023.9
20260509214842 59 135 7.0 10.0 0.00 0.00 0.00 66 1024.1
20260509214340 59 146 8.0 8.0 0.00 0.00 0.00 66 1024.2
20260509213837 59 157 6.0 9.0 0.00 0.00 0.00 66 1024.2
20260509213335 58 157 7.0 8.0 0.00 0.00 0.00 67 1024.1
20260509212833 58 146 6.0 8.0 0.00 0.00 0.00 67 1024.1
20260509212331 58 180 6.0 9.0 0.00 0.00 0.00 68 1023.9
20260509211828 58 135 7.0 9.0 0.00 0.00 0.00 69 1023.8
20260509211326 57 146 6.0 8.0 0.00 0.00 0.00 69 1023.7
20260509210824 57 135 7.0 7.0 0.00 0.00 0.00 69 1023.6
20260509210322 57 135 5.0 7.0 0.00 0.00 0.00 70 1023.4
20260509205819 57 168 4.0 7.0 0.00 0.00 0.00 69 1023.6
20260509205317 57 180 4.0 6.0 0.00 0.00 0.00 69 1023.6
20260509204814 56 157 4.0 6.0 0.00 0.00 0.00 69 1023.5
20260509204312 56 157 4.0 6.0 0.00 0.00 0.00 68 1023.3
20260509203811 56 157 4.0 6.0 0.00 0.00 0.00 68 1023.1
20260509203307 56 135 5.0 5.0 0.00 0.00 0.00 68 1022.9
20260509202805 56 168 3.0 6.0 0.00 0.00 0.00 68 1023.0
20260509202306 56 180 5.0 5.0 0.00 0.00 0.00 67 1022.8
20260509201803 56 135 4.0 5.0 0.00 0.00 0.00 67 1022.8
20260509201259 56 157 4.0 4.0 0.00 0.00 0.00 67 1023.0
20260509200757 56 135 3.0 4.0 0.00 0.00 0.00 67 1022.8
20260509200254 56 180 3.0 3.0 0.00 0.00 0.00 67 1023.1
20260509195751 56 180 1.0 2.0 0.00 0.00 0.00 67 1023.1
20260509195251 56 191 2.0 3.0 0.00 0.00 0.00 67 1023.1
20260509194747 56 180 2.0 3.0 0.00 0.00 0.00 67 1022.7
20260509194245 56 135 3.0 4.0 0.00 0.00 0.00 67 1022.7
20260509193742 56 135 2.0 4.0 0.00 0.00 0.00 67 1022.9
20260509193240 56 168 4.0 5.0 0.00 0.00 0.00 67 1022.5
20260509192738 56 180 4.0 4.0 0.00 0.00 0.00 67 1022.8
20260509192237 56 191 4.0 5.0 0.00 0.00 0.00 67 1022.6
20260509191734 56 180 3.0 5.0 0.00 0.00 0.00 67 1022.5
20260509191231 55 180 4.0 5.0 0.00 0.00 0.00 68 1022.4
20260509190728 55 157 3.0 5.0 0.00 0.00 0.00 68 1022.3
20260509190226 55 180 3.0 4.0 0.00 0.00 0.00 68 1022.3
20260509185724 55 157 3.0 4.0 0.00 0.00 0.00 68 1022.2
20260509185222 55 180 2.0 3.0 0.00 0.00 0.00 68 1022.4
20260509184720 55 180 2.0 4.0 0.00 0.00 0.00 68 1022.4
20260509183715 55 135 5.0 7.0 0.00 0.00 0.00 69 1022.1
20260509183213 55 180 6.0 6.0 0.00 0.00 0.00 69 1022.1
20260509182711 55 157 4.0 6.0 0.00 0.00 0.00 69 1022.1
20260509182208 55 168 4.0 6.0 0.00 0.00 0.00 69 1021.8
20260509181705 55 180 4.0 6.0 0.00 0.00 0.00 68 1021.6
20260509181203 55 180 4.0 5.0 0.00 0.00 0.00 68 1021.7
20260509180701 55 146 6.0 6.0 0.00 0.00 0.00 68 1021.7
20260509180159 55 191 3.0 3.0 0.00 0.00 0.00 67 1021.9
20260509175657 55 135 2.0 2.0 0.00 0.00 0.00 67 1021.9
20260509175154 55 180 1.0 2.0 0.00 0.00 0.00 67 1021.9
20260509174652 54 180 1.0 2.0 0.00 0.00 0.00 67 1021.8
20260509174150 54 180 1.0 3.0 0.00 0.00 0.00 67 1021.8
20260509173648 54 180 1.0 2.0 0.00 0.00 0.00 67 1021.7
20260509173145 54 225 0.0 1.0 0.00 0.00 0.00 66 1021.8
20260509172642 54 225 0.0 2.0 0.00 0.00 0.00 67 1021.7
20260509172140 54 180 2.0 2.0 0.00 0.00 0.00 66 1021.8
20260509171638 54 168 1.0 2.0 0.00 0.00 0.00 65 1022.0
20260509171136 54 180 1.0 2.0 0.00 0.00 0.00 65 1022.0
20260509170634 54 157 1.0 3.0 0.00 0.00 0.00 65 1022.0
20260509170132 54 180 2.0 4.0 0.00 0.00 0.00 65 1022.0
20260509165629 54 180 3.0 4.0 0.00 0.00 0.00 65 1021.9
20260509165127 55 180 3.0 3.0 0.00 0.00 0.00 64 1022.1
20260509164625 55 180 2.0 2.0 0.00 0.00 0.00 64 1022.2
20260509164122 55 180 2.0 3.0 0.00 0.00 0.00 64 1022.1
20260509163620 55 168 1.0 2.0 0.00 0.00 0.00 63 1022.1
20260509163117 55 202 2.0 4.0 0.00 0.00 0.00 64 1022.0
20260509162615 55 180 3.0 3.0 0.00 0.00 0.00 63 1021.9
20260509162113 55 180 2.0 3.0 0.00 0.00 0.00 63 1021.9
20260509161611 55 180 3.0 4.0 0.00 0.00 0.00 63 1021.8
20260509161109 55 180 3.0 4.0 0.00 0.00 0.00 63 1021.7
20260509160606 55 180 3.0 4.0 0.00 0.00 0.00 63 1021.9
20260509160104 55 180 4.0 4.0 0.00 0.00 0.00 63 1021.9
20260509155602 55 180 2.0 2.0 0.00 0.00 0.00 63 1022.0
20260509155059 55 180 2.0 2.0 0.00 0.00 0.00 63 1021.9
20260509154557 55 157 1.0 3.0 0.00 0.00 0.00 63 1022.0
20260509154054 55 180 2.0 3.0 0.00 0.00 0.00 63 1022.1
20260509153552 55 168 3.0 3.0 0.00 0.00 0.00 62 1022.1
20260509153050 55 157 2.0 3.0 0.00 0.00 0.00 62 1021.9
20260509152548 55 157 2.0 3.0 0.00 0.00 0.00 61 1021.9
20260509152046 55 180 2.0 3.0 0.00 0.00 0.00 61 1022.3
20260509151544 55 135 2.0 2.0 0.00 0.00 0.00 61 1022.3
20260509151041 55 135 1.0 3.0 0.00 0.00 0.00 60 1022.3
20260509150036 56 135 3.0 5.0 0.00 0.00 0.00 58 1022.1
20260509145534 56 180 3.0 5.0 0.00 0.00 0.00 58 1022.0
20260509145032 56 180 3.0 4.0 0.00 0.00 0.00 58 1022.2
20260509144529 56 180 2.0 2.0 0.00 0.00 0.00 57 1022.4
20260509144027 57 135 1.0 1.0 0.00 0.00 0.00 56 1022.3
20260509143525 57 157 1.0 3.0 0.00 0.00 0.00 56 1022.4
20260509143023 57 168 3.0 4.0 0.00 0.00 0.00 56 1022.4
20260509142521 57 135 3.0 3.0 0.00 0.00 0.00 56 1022.3
20260509142018 57 101 2.0 2.0 0.00 0.00 0.00 55 1022.1
20260509141516 57 112 2.0 2.0 0.00 0.00 0.00 55 1022.1
20260509141014 57 135 1.0 2.0 0.00 0.00 0.00 54 1022.2
20260509140511 57 135 2.0 3.0 0.00 0.00 0.00 54 1022.1
20260509140009 58 157 1.0 2.0 0.00 0.00 0.00 53 1022.0
20260509135506 58 157 2.0 4.0 0.00 0.00 0.00 53 1022.0
20260509135004 58 180 3.0 5.0 0.00 0.00 0.00 53 1022.1
20260509134502 58 180 3.0 4.0 0.00 0.00 0.00 54 1022.3
20260509134000 58 135 4.0 4.0 0.00 0.00 0.00 54 1022.1
20260509133458 58 101 4.0 4.0 0.00 0.00 0.00 54 1022.2
20260509132955 58 112 4.0 6.0 0.00 0.00 0.00 54 1022.2
20260509132453 58 112 3.0 6.0 0.00 0.00 0.00 54 1022.2
20260509131951 57 157 4.0 5.0 0.00 0.00 0.00 53 1022.0
20260509131448 57 112 4.0 4.0 0.00 0.00 0.00 53 1022.0
20260509130444 57 146 4.0 4.0 0.00 0.00 0.00 52 1022.0
20260509125941 58 135 4.0 5.0 0.00 0.00 0.00 52 1022.0
20260509125441 58 135 4.0 5.0 0.00 0.00 0.00 52 1021.9
20260509124937 58 157 4.0 4.0 0.00 0.00 0.00 51 1021.6
20260509124435 59 146 4.0 4.0 0.00 0.00 0.00 51 1021.5
20260509123933 59 180 5.0 5.0 0.00 0.00 0.00 51 1021.5
20260509123431 59 168 4.0 5.0 0.00 0.00 0.00 50 1021.5
20260509122931 59 157 4.0 4.0 0.00 0.00 0.00 50 1021.4
20260509122425 60 191 3.0 4.0 0.00 0.00 0.00 50 1021.4
20260509121923 60 180 3.0 4.0 0.00 0.00 0.00 49 1021.5
20260509121421 60 135 4.0 4.0 0.00 0.00 0.00 49 1021.4
20260509120918 60 168 4.0 4.0 0.00 0.00 0.00 48 1021.5
20260509120416 60 157 3.0 4.0 0.00 0.00 0.00 48 1021.3
20260509115914 61 180 3.0 3.0 0.00 0.00 0.00 48 1021.4
20260509115412 61 146 3.0 3.0 0.00 0.00 0.00 48 1021.4
20260509114910 61 135 3.0 4.0 0.00 0.00 0.00 48 1021.4
20260509114407 61 135 3.0 4.0 0.00 0.00 0.00 48 1021.3
20260509113905 61 135 3.0 4.0 0.00 0.00 0.00 48 1021.4
20260509113402 61 135 3.0 4.0 0.00 0.00 0.00 48 1021.4
20260509112900 61 135 3.0 3.0 0.00 0.00 0.00 48 1021.3
20260509112358 61 146 3.0 4.0 0.00 0.00 0.00 48 1021.4
20260509111855 61 135 3.0 4.0 0.00 0.00 0.00 47 1021.3